timestamp,wind_dir_avg,wind_spd_avg,wind_spd_max_dir,wind_spd_gust,battery_voltage,lat,long
2021-07-02 00:04:01+00:00,55.0,11.76,54.0,13.49,12.89,47.59359,-54.27349
2021-07-02 00:14:01+00:00,57.0,11.44,62.0,13.26,12.65,47.59359,-54.27349
2021-07-02 00:24:01+00:00,60.0,11.77,60.0,13.8,12.65,47.59359,-54.27349
2021-07-02 00:34:01+00:00,54.0,11.93,54.0,12.84,12.65,47.59359,-54.27349
2021-07-02 00:44:01+00:00,54.0,10.83,54.0,13.01,12.65,47.59359,-54.27349
2021-07-02 00:54:01+00:00,54.0,10.51,52.0,11.77,12.65,47.59359,-54.27349
2021-07-02 01:04:01+00:00,56.0,11.63,57.0,13.15,12.65,47.59359,-54.27349
2021-07-02 01:14:01+00:00,60.0,10.96,59.0,12.57,12.57,47.59359,-54.27349
2021-07-02 01:24:01+00:00,61.0,10.46,63.0,11.55,12.57,47.59359,-54.27349
2021-07-02 01:34:01+00:00,59.0,10.23,58.0,11.93,12.57,47.59359,-54.27349
2021-07-02 01:44:01+00:00,58.0,9.63,64.0,10.74,12.57,47.59359,-54.27349
2021-07-02 01:54:01+00:00,53.0,11.06,55.0,12.15,12.57,47.59359,-54.27349
2021-07-02 02:04:01+00:00,60.0,10.88,59.0,12.01,12.57,47.59359,-54.27349
2021-07-02 02:14:00+00:00,54.0,10.01,52.0,11.29,12.57,47.59359,-54.27349
2021-07-02 02:24:00+00:00,55.0,10.24,58.0,12.32,12.57,47.59359,-54.27349
2021-07-02 02:34:00+00:00,57.0,9.57,59.0,10.9,12.57,47.59359,-54.27349
2021-07-02 02:44:00+00:00,54.0,9.42,52.0,10.57,12.57,47.59359,-54.27349
2021-07-02 02:54:00+00:00,54.0,9.74,54.0,10.68,12.57,47.59359,-54.27349
2021-07-02 03:04:00+00:00,56.0,10.72,54.0,11.72,12.57,47.59359,-54.27349
2021-07-02 03:14:01+00:00,55.0,9.33,53.0,11.16,12.57,47.59359,-54.27349
2021-07-02 03:24:01+00:00,52.0,10.39,48.0,11.91,12.57,47.59359,-54.27349
2021-07-02 03:34:01+00:00,56.0,10.11,61.0,11.11,12.57,47.59359,-54.27349
2021-07-02 03:44:01+00:00,57.0,10.97,57.0,11.89,12.57,47.59359,-54.27349
2021-07-02 03:54:01+00:00,52.0,10.34,50.0,11.73,12.57,47.59359,-54.27349
2021-07-02 04:04:01+00:00,57.0,9.96,59.0,10.71,12.57,47.59359,-54.27349
2021-07-02 04:14:01+00:00,59.0,8.35,60.0,9.92,12.57,47.59359,-54.27349
2021-07-02 04:24:01+00:00,60.0,7.99,69.0,9.15,12.57,47.59359,-54.27349
2021-07-02 04:34:01+00:00,60.0,8.32,56.0,9.58,12.57,47.59359,-54.27349
2021-07-02 04:44:01+00:00,63.0,9.24,58.0,10.01,12.57,47.59359,-54.27349
2021-07-02 04:54:01+00:00,59.0,9.86,58.0,10.95,12.57,47.59359,-54.27349
2021-07-02 05:04:01+00:00,57.0,8.69,59.0,9.62,12.57,47.59359,-54.27349
2021-07-02 05:14:01+00:00,55.0,10.08,54.0,10.7,12.57,47.59359,-54.27349
2021-07-02 05:24:01+00:00,54.0,9.96,55.0,11.33,12.57,47.59359,-54.27349
2021-07-02 05:34:01+00:00,58.0,9.86,58.0,11.99,12.57,47.59359,-54.27349
2021-07-02 05:44:01+00:00,51.0,9.91,51.0,10.94,12.57,47.59359,-54.27349
2021-07-02 05:54:01+00:00,51.0,10.77,53.0,11.81,12.57,47.59359,-54.27349
2021-07-02 06:04:01+00:00,56.0,8.79,51.0,10.99,12.57,47.59359,-54.27349
2021-07-02 06:14:00+00:00,52.0,9.54,51.0,10.45,12.49,47.59359,-54.27349
2021-07-02 06:24:00+00:00,57.0,10.12,58.0,11.61,12.49,47.59359,-54.27349
2021-07-02 06:34:00+00:00,55.0,9.83,60.0,11.43,12.49,47.59359,-54.27349
2021-07-02 06:44:00+00:00,60.0,10.12,59.0,10.72,12.49,47.59359,-54.27349
2021-07-02 06:54:00+00:00,60.0,9.39,59.0,10.54,12.49,47.59359,-54.27349
2021-07-02 07:04:00+00:00,58.0,9.35,61.0,10.81,12.49,47.59359,-54.27349
2021-07-02 07:14:01+00:00,51.0,9.89,52.0,11.16,12.49,47.59359,-54.27349
2021-07-02 07:24:01+00:00,49.0,9.41,51.0,10.57,12.49,47.59359,-54.27349
2021-07-02 07:34:01+00:00,56.0,9.68,55.0,10.56,12.49,47.59359,-54.27349
2021-07-02 07:44:01+00:00,50.0,9.12,52.0,10.3,12.49,47.59359,-54.27349
2021-07-02 07:54:01+00:00,58.0,8.43,60.0,9.66,12.49,47.59359,-54.27349
2021-07-02 08:04:01+00:00,59.0,8.34,58.0,9.74,12.49,47.59359,-54.27349
2021-07-02 08:14:01+00:00,59.0,8.47,59.0,9.19,12.41,47.59359,-54.27349
2021-07-02 08:24:01+00:00,56.0,7.74,60.0,8.61,12.41,47.59359,-54.27349
2021-07-02 08:34:01+00:00,59.0,8.45,59.0,10.47,12.41,47.59359,-54.27349
2021-07-02 08:44:01+00:00,58.0,7.58,58.0,8.94,12.41,47.59359,-54.27349
2021-07-02 08:54:01+00:00,61.0,8.8,62.0,10.86,12.41,47.59359,-54.27349
2021-07-02 09:04:01+00:00,61.0,8.6,59.0,9.63,12.41,47.59359,-54.27349
2021-07-02 09:14:00+00:00,62.0,8.79,59.0,10.08,12.41,47.59359,-54.27349
2021-07-02 09:24:00+00:00,59.0,8.89,63.0,9.89,12.41,47.59359,-54.27349
2021-07-02 09:34:00+00:00,56.0,9.16,54.0,10.16,12.41,47.59359,-54.27349
2021-07-02 09:44:00+00:00,58.0,8.16,57.0,9.3,12.41,47.59359,-54.27349
2021-07-02 09:54:00+00:00,63.0,8.41,62.0,10.58,12.41,47.59359,-54.27349
2021-07-02 10:04:00+00:00,55.0,9.44,53.0,10.62,12.41,47.59359,-54.27349
2021-07-02 10:14:01+00:00,57.0,9.44,50.0,10.81,13.05,47.59359,-54.27349
2021-07-02 10:24:01+00:00,59.0,9.69,58.0,10.65,13.05,47.59359,-54.27349
2021-07-02 10:34:01+00:00,60.0,9.05,64.0,11.2,13.05,47.59359,-54.27349
2021-07-02 10:44:01+00:00,57.0,10.12,60.0,11.66,13.05,47.59359,-54.27349
2021-07-02 10:54:01+00:00,58.0,9.32,56.0,10.79,13.05,47.59359,-54.27349
2021-07-02 11:04:01+00:00,59.0,8.78,57.0,10.15,13.05,47.59359,-54.27349
2021-07-02 11:14:01+00:00,61.0,8.28,61.0,9.68,13.44,47.59359,-54.27349
2021-07-02 11:24:01+00:00,62.0,9.03,63.0,10.3,13.44,47.59359,-54.27349
2021-07-02 11:34:01+00:00,63.0,8.89,63.0,9.95,13.44,47.59359,-54.27349
2021-07-02 11:44:01+00:00,55.0,8.9,55.0,10.04,13.44,47.59359,-54.27349
2021-07-02 11:54:01+00:00,56.0,9.76,57.0,10.77,13.44,47.59359,-54.27349
2021-07-02 12:04:01+00:00,58.0,8.42,59.0,9.38,13.44,47.59359,-54.27349
2021-07-02 12:14:01+00:00,61.0,9.14,60.0,10.27,13.76,47.59359,-54.27349
2021-07-02 12:24:01+00:00,59.0,8.61,60.0,9.66,13.76,47.59359,-54.27349
2021-07-02 12:34:01+00:00,58.0,7.95,53.0,9.72,13.76,47.59359,-54.27349
2021-07-02 12:44:01+00:00,54.0,7.87,55.0,8.69,13.76,47.59359,-54.27349
2021-07-02 12:54:01+00:00,62.0,8.03,65.0,8.91,13.76,47.59359,-54.27349
2021-07-02 13:04:01+00:00,54.0,7.74,54.0,9.18,13.76,47.59359,-54.27349
2021-07-02 13:14:01+00:00,56.0,6.73,56.0,8.24,13.76,47.59359,-54.27349
2021-07-02 13:24:01+00:00,59.0,7.75,50.0,9.02,13.76,47.59359,-54.27349
2021-07-02 13:34:01+00:00,61.0,7.83,65.0,9.73,13.76,47.59359,-54.27349
2021-07-02 13:44:01+00:00,69.0,6.7,73.0,8.04,13.76,47.59359,-54.27349
2021-07-02 13:54:01+00:00,68.0,6.38,74.0,7.49,13.76,47.59359,-54.27349
2021-07-02 14:04:01+00:00,65.0,7.54,62.0,8.95,13.76,47.59359,-54.27349
2021-07-02 14:14:01+00:00,71.0,6.5,67.0,7.46,13.68,47.59359,-54.27349
2021-07-02 14:24:01+00:00,57.0,7.16,53.0,8.53,13.68,47.59359,-54.27349
2021-07-02 14:34:01+00:00,58.0,7.64,59.0,8.24,13.68,47.59359,-54.27349
2021-07-02 14:44:01+00:00,61.0,6.33,57.0,7.15,13.68,47.59359,-54.27349
2021-07-02 14:54:01+00:00,61.0,6.01,53.0,7.54,13.68,47.59359,-54.27349
2021-07-02 15:04:01+00:00,62.0,6.73,60.0,7.74,13.68,47.59359,-54.27349
2021-07-02 15:14:01+00:00,62.0,7.05,58.0,8.13,13.76,47.59359,-54.27349
2021-07-02 15:24:01+00:00,65.0,7.39,73.0,9.35,13.76,47.59359,-54.27349
2021-07-02 15:34:01+00:00,63.0,6.77,66.0,8.54,13.76,47.59359,-54.27349
2021-07-02 15:44:01+00:00,64.0,7.76,60.0,8.97,13.76,47.59359,-54.27349
2021-07-02 15:54:01+00:00,65.0,7.53,66.0,8.74,13.76,47.59359,-54.27349
2021-07-02 16:04:01+00:00,73.0,6.81,93.0,8.66,13.76,47.59359,-54.27349
2021-07-02 16:14:01+00:00,70.0,6.58,70.0,8.08,13.84,47.59359,-54.27349
2021-07-02 16:24:01+00:00,69.0,6.38,72.0,7.44,13.84,47.59359,-54.27349
2021-07-02 16:34:01+00:00,66.0,7.08,65.0,7.93,13.84,47.59359,-54.27349
2021-07-02 16:44:01+00:00,73.0,6.81,81.0,9.97,13.84,47.59359,-54.27349
2021-07-02 16:54:01+00:00,63.0,7.27,65.0,8.17,13.84,47.59359,-54.27349
2021-07-02 17:04:01+00:00,61.0,6.68,61.0,7.86,13.84,47.59359,-54.27349
2021-07-02 17:14:00+00:00,57.0,7.44,62.0,8.6,13.84,47.59359,-54.27349
2021-07-02 17:24:00+00:00,61.0,7.88,67.0,9.81,13.84,47.59359,-54.27349
2021-07-02 17:34:00+00:00,61.0,8.13,70.0,10.25,13.84,47.59359,-54.27349
2021-07-02 17:44:00+00:00,67.0,8.63,72.0,10.39,13.84,47.59359,-54.27349
2021-07-02 17:54:00+00:00,66.0,8.38,71.0,10.69,13.84,47.59359,-54.27349
2021-07-02 18:04:00+00:00,64.0,9.54,72.0,10.94,13.84,47.59359,-54.27349
2021-07-02 18:14:01+00:00,64.0,9.33,69.0,11.09,13.76,47.59359,-54.27349
2021-07-02 18:24:01+00:00,66.0,8.7,72.0,10.62,13.76,47.59359,-54.27349
2021-07-02 18:34:01+00:00,66.0,8.47,74.0,10.35,13.76,47.59359,-54.27349
2021-07-02 18:44:01+00:00,68.0,9.24,69.0,10.84,13.76,47.59359,-54.27349
2021-07-02 18:54:01+00:00,68.0,7.7,75.0,10.64,13.76,47.59359,-54.27349
2021-07-02 19:04:01+00:00,70.0,9.44,72.0,11.15,13.76,47.59359,-54.27349
2021-07-02 19:14:01+00:00,56.0,9.12,60.0,10.62,13.68,47.59359,-54.27349
2021-07-02 19:24:01+00:00,67.0,9.69,70.0,11.02,13.68,47.59359,-54.27349
2021-07-02 19:34:01+00:00,66.0,7.88,73.0,10.33,13.68,47.59359,-54.27349
2021-07-02 19:44:01+00:00,72.0,9.43,73.0,10.95,13.68,47.59359,-54.27349
2021-07-02 19:54:01+00:00,68.0,8.78,72.0,10.36,13.68,47.59359,-54.27349
2021-07-02 20:04:01+00:00,80.0,6.06,85.0,10.33,13.68,47.59359,-54.27349
2021-07-02 20:14:01+00:00,77.0,7.79,81.0,10.56,13.68,47.59359,-54.27349
2021-07-02 20:24:01+00:00,76.0,8.34,78.0,10.75,13.68,47.59359,-54.27349
2021-07-02 20:34:01+00:00,78.0,7.38,87.0,10.5,13.68,47.59359,-54.27349
2021-07-02 20:44:01+00:00,73.0,8.02,81.0,10.02,13.68,47.59359,-54.27349
2021-07-02 20:54:01+00:00,76.0,9.14,77.0,10.65,13.68,47.59359,-54.27349
2021-07-02 21:04:01+00:00,77.0,7.47,73.0,10.6,13.68,47.59359,-54.27349
2021-07-02 21:14:01+00:00,83.0,5.6,91.0,10.06,13.53,47.59359,-54.27349
2021-07-02 21:24:01+00:00,72.0,4.7,66.0,7.52,13.53,47.59359,-54.27349
2021-07-02 21:34:01+00:00,79.0,3.87,72.0,5.28,13.53,47.59359,-54.27349
2021-07-02 21:44:01+00:00,73.0,9.36,73.0,10.72,13.53,47.59359,-54.27349
2021-07-02 21:54:01+00:00,75.0,9.07,74.0,10.7,13.53,47.59359,-54.27349
2021-07-02 22:04:01+00:00,68.0,8.01,75.0,10.67,13.53,47.59359,-54.27349
2021-07-02 22:14:01+00:00,66.0,8.72,72.0,10.5,13.29,47.59359,-54.27349
2021-07-02 22:24:01+00:00,57.0,8.35,54.0,10.03,13.29,47.59359,-54.27349
2021-07-02 22:34:01+00:00,67.0,7.67,73.0,9.79,13.29,47.59359,-54.27349
2021-07-02 22:44:01+00:00,70.0,7.56,72.0,9.25,13.29,47.59359,-54.27349
2021-07-02 22:54:01+00:00,62.0,6.45,66.0,7.41,13.29,47.59359,-54.27349
2021-07-02 23:04:01+00:00,60.0,6.88,64.0,7.96,13.29,47.59359,-54.27349
2021-07-02 23:14:01+00:00,59.0,6.21,72.0,9.19,12.81,47.59359,-54.27349
2021-07-02 23:24:01+00:00,57.0,6.63,59.0,7.47,12.81,47.59359,-54.27349
2021-07-02 23:34:01+00:00,68.0,6.04,62.0,6.94,12.81,47.59359,-54.27349
2021-07-02 23:44:01+00:00,64.0,5.48,66.0,6.0,12.81,47.59359,-54.27349
2021-07-02 23:54:01+00:00,62.0,6.08,58.0,6.69,12.81,47.59359,-54.27349
